Location: Aurora Center
(43.5271°N, 98.5894°W)
Time: 00:41:26
(UTC-05:00)

BlueWalker 3 - Pass Details

Date: 22 June 2024
Orbit: 480 x 492 km, 53.2° (Epoch: 15 July)

Event Time Altitude Azimuth Distance (km) Brightness Sun altitude
Rises 02:41:22 0° 307° (NW) 2,539 5.8 -21.4°
Reaches altitude 10° 02:43:40 10° 317° (NW) 1,657 4.9 -21.3°
Maximum altitude 02:47:07 34° 24° (NNE) 806 3.6 -21.1°
Drops below altitude 10° 02:50:33 10° 91° (E) 1,654 4.7 -20.9°
Sets 02:52:51 0° 101° (E) 2,532 5.6 -20.8°
